Погода в Балаганске

Россия / Иркутская область     54°00′22″N   103°03′27″E
темп.,
°C
ветер,
м/с
пор.,
м/с
влажн.,
%
обл.,
%
осадки,
мм/ч
давл.,
гПа
погр.,
м
4 марта, чт
чт423:00−24ссз339082 0.0 102926
02:00−27с229541 0.0 103120
05:00−30с22980 0.0 103419
08:00−31с12970 0.0 103719
11:00−24всв11870 0.0 1037160
14:00−19вюв11797 0.0 1036283
17:00−19ююв11800 0.0 1035206
20:00−24юв12801 0.0 103720
5 марта, пт
пт523:00−24вюв22860 0.0 103720
02:00−24вюв22881 0.0 103720
05:00−24вюв228918 0.0 103520
08:00−24вюв228912 0.0 103420
11:00−17юв388381 0.0 1030317
14:00−12ююв5108569 0.0 1026513
17:00−10ююв61187100 0.0 1023488
20:00−12юв4108989 0.0 1024208
6 марта, сб
сб623:00−15ююв410905 0.0 1024203
02:00−14ююв499153 0.0 1025304
05:00−15ююв3494100 0.0 102673
08:00−15ююв2296100 0.0 102832
11:00−12ююв239591 0.0 1027181
14:00−9ююв459595 0.1 1025255
17:00−8юв3695100 0.0 1022216
20:00−8ююв359496 0.0 102389
7 марта, вс
вс723:00−9ююв369490 0.0 1022116
02:00−11ююв229490 0.0 102121
05:00−11юв2292100 0.0 102023
08:00−12ююв239099 0.0 102022
11:00−8ююв368698 0.0 1018223
14:00−5ююв248793 0.0 1017295
17:00−4юв229136 0.0 1017127
20:00−9вюв019239 0.0 102021
8 марта, пн
пн823:00−6ю1188100 0.0 102121
02:00−6св1192100 0.1 102221
05:00−9вюв019871 0.0 102321
08:00−10ююв229673 0.0 102421
11:00−6ююв369496 0.0 1021246
14:00−3ююв469492 0.0 1019324
17:00−2ююв359487 0.0 1017292
20:00−6юв229766 0.0 101821